Weather in Sant Josep de sa Talaia

Spain     38°55′18″N   1°17′37″E
temp.,
°C
wind,
m/s
gust,
m/s
humid.,
%
clouds,
%
prec.,
mm/h
press.,
hPa
HPBL,
m
21 april, wed
wed2123:00+15nne2281100 0.0 101334
02:00+15se2384100 0.1 101383
05:00+15nw3287100 0.1 101291
08:00+14n3392100 1.5 1012166
11:00+16n228286 1.1 1013296
14:00+16nne4481100 1.3 1012476
17:00+17e2375100 0.1 1011368
20:00+16ese237594 0.5 1012171
22 april, thu
thu2223:00+15ene1182100 0.0 101418
02:00+15ene338399 0.0 1013100
05:00+14e4689100 0.0 1012291
08:00+15e4690100 0.1 1013349
11:00+15ese5690100 2.0 1014394
14:00+15se3486100 4.3 1014356
17:00+15e338171 0.5 1013523
20:00+14ne6790100 1.5 1015478
23 april, fri
fri2323:00+14ne459187 0.1 1017292
02:00+14ne5788100 0.1 1017445
05:00+14nne588725 0.1 1016461
08:00+14nne798564 0.2 1017609
11:00+15nne89767 0.0 1018672
14:00+16nne777416 0.0 1018702
17:00+16nne777636 0.0 1018699
20:00+16ne558087 0.0 1019396
24 april, sat
sat2423:00+14ne3487100 0.0 1020163
02:00+14ne338770 0.0 1019154
05:00+14ene3489100 0.0 1018184
08:00+14ene478810 0.0 1019365
11:00+17ene567394 0.0 1020513
14:00+18e67705 0.0 1019533
17:00+18e6868100 0.0 1018456
20:00+16ene6878100 0.0 1017419
25 april, sun
sun2523:00+15ene51085100 0.0 1018384
02:00+15ene612755 0.0 1016388
05:00+15ene8148059 0.0 1014454
08:00+15ene71478100 0.0 1013477
11:00+17ene101466100 0.0 1013444
14:00+19e1013680 0.0 1011354
17:00+19e1012690 0.0 1009269
20:00+17e8138186 0.0 1009289